Погода Пудино

Погода Пудино : погода сейчас, прогноз погоды и архив. Всё, что Вы хотите узнать о погоде Пудино!

Хотите узнать прогноз погоды Пудино? Тогда Вам сюда: Погода Пудино

Поиск расширенной информации на нашем сайте:

Другие новости

Новости СМИ2

Главная страница сайта

Новости сайта

03.07.2017

Напоминаем, что на нашем специализированном сайте Метеоцентр.Азия вы можете получить высокодетализированные автоматические прогнозы погоды по пунктам России, СНГ и мира в авиационном формате (включающие направление и скорость ветра, видимость, явления погоды, количество и форму облачности, нижнюю и верхнюю границу облачности).


Погода Пудино - сегодня

Время (UTC), дата Ветер
(°,м/с) 
Видим.   Явления Облачность Т
(°С)
Тd
(°С)
f(%) Тe
(°С)
Pmin
(гПа)
dP
(гПа)
Po
(мм)
O2
(г/м3)
Тmin Tmax R s Состояние
почвы
18 20.11.17 170 (Ю) 10 км  слаб. ливневой снег  10/10 600 м кучево-дожд. 
[Cb cap]
-2.3 -3.2 94 -4  1027.5  -0.9  761  310           
21 20.11.17 190 (Ю) 10 км  слаб. ливневой снег  10/10 600 м кучево-дожд. 
[Cb cap]
-2.8 -3.6 94 -2  1027.4  -0.2  761  310           
00 21.11.17 190 (Ю) 20000 м  {ливн. осадки}  10/10 600 м кучево-дожд. 
[Cb cap]
-2.1 -2.9 94 -2  1027.8  0.4  761  310  -2.8    35  равномерный
сухой снег
100% 
03 21.11.17 180 (Ю) 4000 м  слаб. ливневой снег  10/10 600 м кучево-дожд. 
[Cb cap]
-1.9 -2.6 95 -1  1028.3  0.6  762  309           
06 21.11.17 210 (ЮЗ) 20000 м  {ливн. осадки}  10/10 600 м кучево-дожд. 
[Cb cap]
-0.7 -2 91 -3  1028.3  762  308           
09 21.11.17 210 (ЮЗ) 20000 м    10/10 300 м кучево-дожд. 
[Cb cap]
-0.9 -2.9 86 -3  1028.3  -0.1  762  308           
12 21.11.17 180 (Ю) 20000 м    10/10 600 м 
[Sc]
-1.5 -3 89 -3  1027.1  -1.1  761  309    -0.6  0.2     
15 21.11.17 190 (Ю) 4000 м  слаб. ливневой снег  10/10 600 м кучево-дожд. 
[Cb cap]
-1.4 -2.7 91 -3  1025.1  -2  760  308           
18 21.11.17 220 (ЮЗ) 20000 м  {ливн. осадки}  10/5 600 м средняя 
[Sc|As op]
-0.7 -2 91 -3  1025.1  0.1  760  307           
21 21.11.17 250 (З) 20000 м    10/10 300 м 
[St]
+0.1 -1.1 92 -2  1026.4  1.3  761  306           
00 22.11.17 260 (З) 20000 м    10/10 300 м 
[St]
+0.2 -0.8 93 -1  1027.9  1.5  762  307  -1.6    0.2  31  равномерный
сухой снег
100% 
03 22.11.17 180 (Ю) 4000 м  слаб. снег  10/10 300 м 
[Ns]
+0 -0.7 95 +1  1029.2  1.3  763  307           
06 22.11.17 190 (Ю) 20000 м  в посл. час крупа{ливн. осадки, снег}  10/6 300 м кучево-дожд., средняя 
[Cb cap|As trans]
+0.4 -0.4 94 +1  1030  0.7  763  307           
09 22.11.17 180 (Ю) 20000 м  {морось}  10/9 300 м кучево-дожд., средняя 
[Cb cap|As trans]
+0.6 -0.4 93 1030  0.1  763  307           
12 22.11.17 180 (Ю) 20000 м  {морось}  10/0 средняя 
[Ac As]
-0.9 -1.7 94 1029.8  -0.3  763  309    +0.6  0.7     
15 22.11.17 190 (Ю) 20000 м    8/0 средняя, верхняя 
[Ac As|Ci fib]
-2.6 -4.4 87 -4  1029.2  -0.7  763  311           
18 22.11.17 190 (Ю) 20000 м    9/0 средняя, верхняя 
[Ac As|Ci fib]
-4.2 -6.8 82 -5  1028.5  -0.8  762  313           
21 22.11.17 190 (Ю) 20000 м    ясно 
-6.8 -9 84 -8  1028.3  -0.3  762  316           
00 23.11.17 180 (Ю) 20000 м    ясно 
-8.2 -10 87 -10  1027.6  -0.7  761  317  -8.6      29  равномерный
мокрый или
старый снег
100% 
03 23.11.17 190 (Ю) 20000 м    3/0 верхняя 
[Ci sp]
-10.9 -11.7 94 -13  1027.7  761  321  -11.2         
06 23.11.17 200 (Ю) 20000 м    4/0 верхняя 
[Cc]
-5.5 -8.9 77 -7  1027.6  0.2  761  314           
09 23.11.17 190 (Ю) 20000 м    4/0 верхняя 
[Ci sp]
-3.7 -7.7 74 -3  1027.2  -0.3  761  312           
12 23.11.17 200 (Ю) 20000 м    3/0 верхняя 
[Ci sp]
-7 -9.3 84 -8  1027.1  -0.3  761  316    -3.5       
15 23.11.17 200 (Ю) 20000 м    1/0 верхняя 
[Ci sp]
-11.7 -12.6 93 -12  1027.4  761  321           
18 23.11.17 200 (Ю) 20000 м    ясно 
-11.6 -12.6 92 -11  1027.4  0.1  761  321           
Время (UTC), дата Ветер
(°,м/с) 
Видим.   Явления Облачность Т
(°С)
Тd
(°С)
f(%) Тe
(°С)
Pmin
(гПа)
dP
(гПа)
Po
(мм)
O2
(г/м3)
Тmin Tmax R s Состояние
почвы

Для получения пояснительной информации подведите курсор к названию столбца.

ПОГОДА Пудино - архив

Всё, что Вы хотите узнать о погоде Пудино - удобно и подробно!

Выберите нужную дату (начиная с 1 января 2015* года) и нажмите кнопку "Найти".
Будут отображены архивные сводки погоды по пункту Пудино, начиная с указанной даты.


Отображать данные в формате CSV (для использования в таблицах Excel)


Внимание! Наш архив погоды предназначен исключительно для личного некоммерческого использования в познавательных целях. Если Вам необходимы официальные справки о состоянии погоды (для производственных, юридических, коммерческих и т.п. целей), обращайтесь в органы Росгидромета.

*Примечание: данная дата относится к архиву по метеостанциям СССР (Россия, СНГ, Балтия).
Архив по метеостанциям Зарубежной Европы и Азии (кроме Китая) хранится 10 дней, по другим регионам земного шара (Китай, Африка, Америка, Австралия, Океания) - 1 день.

Пудино - район местоположения метеостанции


Название, широта, долгота, высота метеостанции:
Пудино 57.5°ш. 79.4°д. 97 м над ур. моря [Российская Федерация]

Дополнительная информация

В oтличие oт бoльшинства пoгoдных сайтoв мы публикуем пoдрoбную метеoинфoрмацию в детальнoм прoфессиoнальнoм фoрмате.

Характеристики температуры и влажнoсти вoздуха измеряются на высoте 2 м в тени вдали oт зданий и деревьев.
Скoрoсть ветра измеряется на высoте 10 м (на урoвне рoста челoвека скoрoсть ветра ниже в 1.5-2 раза). Если метеoстанция нахoдится в гoрoде или в лесу, тo скoрoсть ветра занижена на 2-4 м/с пo сравнению с oткрытым местoм. Скoрoсть ветра над акватoриями крупных рек и oзёр, а также на вершинах хoлмoв на 2-5 м/с выше, чем в oбычных услoвиях.
Атмoсфернoе давление в разных тoчках местнoсти мoжет значительнo oтличаться oт давления на метеoстанции, в зависимoсти oт услoвий рельефа (при пoдъёме на 10 м давление пoнижается примернo на 1 мм рт.ст.).